Year,Month,Day,Hour,Minute,Value (Times are PST for temperature in C)
2012,03,30,00,00,3.80
2012,03,30,00,01,3.80
2012,03,30,00,02,3.80
2012,03,30,00,03,3.80
2012,03,30,00,04,3.80
2012,03,30,00,05,3.80
2012,03,30,00,06,3.80
2012,03,30,00,07,3.80
2012,03,30,00,08,3.80
2012,03,30,00,09,3.80
2012,03,30,00,10,3.80
2012,03,30,00,11,3.80
2012,03,30,00,12,3.80
2012,03,30,00,13,3.80
2012,03,30,00,14,3.80
2012,03,30,00,15,3.80
2012,03,30,00,16,3.80
2012,03,30,00,17,3.80
2012,03,30,00,18,3.80
2012,03,30,00,19,3.80
2012,03,30,00,20,3.80
2012,03,30,00,21,3.80
2012,03,30,00,22,3.80
2012,03,30,00,23,3.80
2012,03,30,00,24,3.90
2012,03,30,00,25,3.90
2012,03,30,00,26,3.90
2012,03,30,00,27,3.90
2012,03,30,00,28,3.90
2012,03,30,00,29,4.00
2012,03,30,00,30,4.00
2012,03,30,00,31,4.00
2012,03,30,00,32,4.00
2012,03,30,00,33,4.00
2012,03,30,00,34,4.00
2012,03,30,00,35,4.10
2012,03,30,00,36,4.10
2012,03,30,00,37,4.10
2012,03,30,00,38,4.10
2012,03,30,00,39,4.10
2012,03,30,00,40,4.10
2012,03,30,00,41,4.20
2012,03,30,00,42,4.20
2012,03,30,00,43,4.20
2012,03,30,00,44,4.20
2012,03,30,00,45,4.20
2012,03,30,00,46,4.20
2012,03,30,00,47,4.20
2012,03,30,00,48,4.20
2012,03,30,00,49,4.20
2012,03,30,00,50,4.20
2012,03,30,00,51,4.20
2012,03,30,00,52,4.20
2012,03,30,00,53,4.20
2012,03,30,00,54,4.20
2012,03,30,00,55,4.20
2012,03,30,00,56,4.20
2012,03,30,00,57,4.20
2012,03,30,00,58,4.20
2012,03,30,00,59,4.20
2012,03,30,01,00,4.20
2012,03,30,01,01,4.20
2012,03,30,01,02,4.20
2012,03,30,01,03,4.20
2012,03,30,01,04,4.20
2012,03,30,01,05,4.30
2012,03,30,01,06,4.30
2012,03,30,01,07,4.30
2012,03,30,01,08,4.30
2012,03,30,01,09,4.30
2012,03,30,01,10,4.30
2012,03,30,01,11,4.30
2012,03,30,01,12,4.30
2012,03,30,01,13,4.30
2012,03,30,01,14,4.30
2012,03,30,01,15,4.30
2012,03,30,01,16,4.30
2012,03,30,01,17,4.30
2012,03,30,01,18,4.30
2012,03,30,01,19,4.30
2012,03,30,01,20,4.40
2012,03,30,01,21,4.40
2012,03,30,01,22,4.40
2012,03,30,01,23,4.40
2012,03,30,01,24,4.40
2012,03,30,01,25,4.40
2012,03,30,01,26,4.40
2012,03,30,01,27,4.50
2012,03,30,01,28,4.50
2012,03,30,01,29,4.50
2012,03,30,01,30,4.50
2012,03,30,01,31,4.50
2012,03,30,01,32,4.50
2012,03,30,01,33,4.60
2012,03,30,01,34,4.60
2012,03,30,01,35,4.60
2012,03,30,01,36,4.60
2012,03,30,01,37,4.60
2012,03,30,01,38,4.70
2012,03,30,01,39,4.70
2012,03,30,01,40,4.70
2012,03,30,01,41,4.70
2012,03,30,01,42,4.70
2012,03,30,01,43,4.70
2012,03,30,01,44,4.70
2012,03,30,01,45,4.70
2012,03,30,01,46,4.80
2012,03,30,01,47,4.80
2012,03,30,01,48,4.80
2012,03,30,01,49,4.80
2012,03,30,01,50,4.80
2012,03,30,01,51,4.80
2012,03,30,01,52,4.80
2012,03,30,01,53,4.80
2012,03,30,01,54,4.80
2012,03,30,01,55,4.90
2012,03,30,01,56,4.90
2012,03,30,01,57,4.90
2012,03,30,01,58,4.90
2012,03,30,01,59,4.90
2012,03,30,02,00,4.90
2012,03,30,02,01,4.90
2012,03,30,02,02,4.90
2012,03,30,02,03,4.90
2012,03,30,02,04,4.90
2012,03,30,02,05,4.90
2012,03,30,02,06,4.90
2012,03,30,02,07,4.90
2012,03,30,02,08,4.90
2012,03,30,02,09,4.90
2012,03,30,02,10,4.90
2012,03,30,02,11,4.90
2012,03,30,02,12,4.90
2012,03,30,02,13,4.90
2012,03,30,02,14,4.90
2012,03,30,02,15,5.00
2012,03,30,02,16,5.00
2012,03,30,02,17,5.10
2012,03,30,02,18,5.10
2012,03,30,02,19,5.10
2012,03,30,02,20,5.10
2012,03,30,02,21,5.10
2012,03,30,02,22,5.10
2012,03,30,02,23,5.10
2012,03,30,02,24,5.10
2012,03,30,02,25,5.10
2012,03,30,02,26,5.10
2012,03,30,02,27,5.10
2012,03,30,02,28,5.10
2012,03,30,02,29,5.00
2012,03,30,02,30,4.90
2012,03,30,02,31,4.90
2012,03,30,02,32,4.90
2012,03,30,02,33,4.90
2012,03,30,02,34,4.90
2012,03,30,02,35,4.90
2012,03,30,02,36,4.90
2012,03,30,02,37,4.90
2012,03,30,02,38,4.90
2012,03,30,02,39,4.90
2012,03,30,02,40,4.90
2012,03,30,02,41,4.90
2012,03,30,02,42,4.90
2012,03,30,02,43,4.90
2012,03,30,02,44,4.90
2012,03,30,02,45,4.90
2012,03,30,02,46,4.90
2012,03,30,02,47,4.90
2012,03,30,02,48,4.90
2012,03,30,02,49,4.90
2012,03,30,02,50,4.90
2012,03,30,02,51,4.90
2012,03,30,02,52,4.90
2012,03,30,02,53,4.90
2012,03,30,02,54,4.90
2012,03,30,02,55,4.90
2012,03,30,02,56,4.90
2012,03,30,02,57,4.90
2012,03,30,02,58,4.90
2012,03,30,02,59,4.90
2012,03,30,03,00,4.90
2012,03,30,03,01,4.90
2012,03,30,03,02,4.90
2012,03,30,03,03,4.90
2012,03,30,03,04,4.90
2012,03,30,03,05,5.00
2012,03,30,03,06,5.10
2012,03,30,03,07,5.10
2012,03,30,03,08,5.10
2012,03,30,03,09,5.10
2012,03,30,03,10,5.10
2012,03,30,03,11,5.10
2012,03,30,03,12,5.10
2012,03,30,03,13,5.10
2012,03,30,03,14,5.10
2012,03,30,03,15,5.10
2012,03,30,03,16,5.10
2012,03,30,03,17,5.10
2012,03,30,03,18,5.10
2012,03,30,03,19,5.10
2012,03,30,03,20,5.10
2012,03,30,03,21,5.10
2012,03,30,03,22,5.10
2012,03,30,03,23,5.10
2012,03,30,03,24,5.10
2012,03,30,03,25,5.10
2012,03,30,03,26,5.10
2012,03,30,03,27,5.10
2012,03,30,03,28,5.10
2012,03,30,03,29,5.10
2012,03,30,03,30,5.10
2012,03,30,03,31,5.10
2012,03,30,03,32,5.10
2012,03,30,03,33,5.10
2012,03,30,03,34,5.10
2012,03,30,03,35,5.10
2012,03,30,03,36,5.10
2012,03,30,03,37,5.10
2012,03,30,03,38,5.10
2012,03,30,03,39,5.10
2012,03,30,03,40,5.10
2012,03,30,03,41,5.10
2012,03,30,03,42,5.10
2012,03,30,03,43,5.10
2012,03,30,03,44,5.10
2012,03,30,03,45,5.10
2012,03,30,03,46,5.00
2012,03,30,03,47,4.90
2012,03,30,03,48,4.90
2012,03,30,03,49,4.90
2012,03,30,03,50,4.90
2012,03,30,03,51,4.90
2012,03,30,03,52,4.90
2012,03,30,03,53,4.90
2012,03,30,03,54,4.90
2012,03,30,03,55,4.90
2012,03,30,03,56,4.90
2012,03,30,03,57,4.90
2012,03,30,03,58,4.90
2012,03,30,03,59,4.90
2012,03,30,04,00,4.90
2012,03,30,04,01,4.90
2012,03,30,04,02,4.80
2012,03,30,04,03,4.90
2012,03,30,04,04,4.90
2012,03,30,04,05,4.90
2012,03,30,04,06,4.90
2012,03,30,04,07,4.90
2012,03,30,04,08,4.90
2012,03,30,04,09,4.90
2012,03,30,04,10,4.90
2012,03,30,04,11,4.80
2012,03,30,04,12,4.80
2012,03,30,04,13,4.80
2012,03,30,04,14,4.80
2012,03,30,04,15,4.80
2012,03,30,04,16,4.80
2012,03,30,04,17,4.80
2012,03,30,04,18,4.80
2012,03,30,04,19,4.70
2012,03,30,04,20,4.70
2012,03,30,04,21,4.70
2012,03,30,04,22,4.70
2012,03,30,04,23,4.70
2012,03,30,04,24,4.80
2012,03,30,04,25,4.80
2012,03,30,04,26,4.80
2012,03,30,04,27,4.80
2012,03,30,04,28,4.70
2012,03,30,04,29,4.70
2012,03,30,04,30,4.70
2012,03,30,04,31,4.70
2012,03,30,04,32,4.70
2012,03,30,04,33,4.70
2012,03,30,04,34,4.80
2012,03,30,04,35,4.80
2012,03,30,04,36,4.80
2012,03,30,04,37,4.80
2012,03,30,04,38,4.80
2012,03,30,04,39,4.70
2012,03,30,04,40,4.70
2012,03,30,04,41,4.70
2012,03,30,04,42,4.70
2012,03,30,04,43,4.70
2012,03,30,04,44,4.70
2012,03,30,04,45,4.60
2012,03,30,04,46,4.60
2012,03,30,04,47,4.60
2012,03,30,04,48,4.60
2012,03,30,04,49,4.60
2012,03,30,04,50,4.60
2012,03,30,04,51,4.50
2012,03,30,04,52,4.50
2012,03,30,04,53,4.50
2012,03,30,04,54,4.50
2012,03,30,04,55,4.50
2012,03,30,04,56,4.40
2012,03,30,04,57,4.40
2012,03,30,04,58,4.40
2012,03,30,04,59,4.40
2012,03,30,05,00,4.40
2012,03,30,05,01,4.40
2012,03,30,05,02,4.40
2012,03,30,05,03,4.30
2012,03,30,05,04,4.30
2012,03,30,05,05,4.30
2012,03,30,05,06,4.30
2012,03,30,05,07,4.20
2012,03,30,05,08,4.20
2012,03,30,05,09,4.20
2012,03,30,05,10,4.20
2012,03,30,05,11,4.20
2012,03,30,05,12,4.20
2012,03,30,05,13,4.20
2012,03,30,05,14,4.20
2012,03,30,05,15,4.20
2012,03,30,05,16,4.20
2012,03,30,05,17,4.20
2012,03,30,05,18,4.20
2012,03,30,05,19,4.20
2012,03,30,05,20,4.20
2012,03,30,05,21,4.20
2012,03,30,05,22,4.20
2012,03,30,05,23,4.20
2012,03,30,05,24,4.20
2012,03,30,05,25,4.20
2012,03,30,05,26,4.20
2012,03,30,05,27,4.20
2012,03,30,05,28,4.20
2012,03,30,05,29,4.20
2012,03,30,05,30,4.20
2012,03,30,05,31,4.20
2012,03,30,05,32,4.20
2012,03,30,05,33,4.20
2012,03,30,05,34,4.20
2012,03,30,05,35,4.20
2012,03,30,05,36,4.20
2012,03,30,05,37,4.20
2012,03,30,05,38,4.20
2012,03,30,05,39,4.20
2012,03,30,05,40,4.20
2012,03,30,05,41,4.20
2012,03,30,05,42,4.20
2012,03,30,05,43,4.20
2012,03,30,05,44,4.20
2012,03,30,05,45,4.20
2012,03,30,05,46,4.20
2012,03,30,05,47,4.20
2012,03,30,05,48,4.20
2012,03,30,05,49,4.20
2012,03,30,05,50,4.20
2012,03,30,05,51,4.20
2012,03,30,05,52,4.20
2012,03,30,05,53,4.20
2012,03,30,05,54,4.20
2012,03,30,05,55,4.20
2012,03,30,05,56,4.20
2012,03,30,05,57,4.20
2012,03,30,05,58,4.20
2012,03,30,05,59,4.20
2012,03,30,06,00,4.20
2012,03,30,06,01,4.20
2012,03,30,06,02,4.20
2012,03,30,06,03,4.20
2012,03,30,06,04,4.20
2012,03,30,06,05,4.20
2012,03,30,06,06,4.20
2012,03,30,06,07,4.20
2012,03,30,06,08,4.20
2012,03,30,06,09,4.30
2012,03,30,06,10,4.30
2012,03,30,06,11,4.30
2012,03,30,06,12,4.30
2012,03,30,06,13,4.30
2012,03,30,06,14,4.30
2012,03,30,06,15,4.30
2012,03,30,06,16,4.20
2012,03,30,06,17,4.20
2012,03,30,06,18,4.20
2012,03,30,06,19,4.20
2012,03,30,06,20,4.20
2012,03,30,06,21,4.20
2012,03,30,06,22,4.20
2012,03,30,06,23,4.20
2012,03,30,06,24,4.20
2012,03,30,06,25,4.20
2012,03,30,06,26,4.20
2012,03,30,06,27,4.20
2012,03,30,06,28,4.20
2012,03,30,06,29,4.20
2012,03,30,06,30,4.20
2012,03,30,06,31,4.10
2012,03,30,06,32,4.10
2012,03,30,06,33,4.10
2012,03,30,06,34,4.10
2012,03,30,06,35,4.10
2012,03,30,06,36,4.10
2012,03,30,06,37,4.10
2012,03,30,06,38,4.10
2012,03,30,06,39,4.10
2012,03,30,06,40,4.10
2012,03,30,06,41,4.10
2012,03,30,06,42,4.20
2012,03,30,06,43,4.20
2012,03,30,06,44,4.20
2012,03,30,06,45,4.20
2012,03,30,06,46,4.20
2012,03,30,06,47,4.20
2012,03,30,06,48,4.20
2012,03,30,06,49,4.20
2012,03,30,06,50,4.20
2012,03,30,06,51,4.20
2012,03,30,06,52,4.20
2012,03,30,06,53,4.20
2012,03,30,06,54,4.20
2012,03,30,06,55,4.20
2012,03,30,06,56,4.20
2012,03,30,06,57,4.20
2012,03,30,06,58,4.20
2012,03,30,06,59,4.20
2012,03,30,07,00,4.20
2012,03,30,07,01,4.20
2012,03,30,07,02,4.20
2012,03,30,07,03,4.20
2012,03,30,07,04,4.20
2012,03,30,07,05,4.20
2012,03,30,07,06,4.20
2012,03,30,07,07,4.20
2012,03,30,07,08,4.20
2012,03,30,07,09,4.20
2012,03,30,07,10,4.30
2012,03,30,07,11,4.30
2012,03,30,07,12,4.30
2012,03,30,07,13,4.30
2012,03,30,07,14,4.30
2012,03,30,07,15,4.30
2012,03,30,07,16,4.30
2012,03,30,07,17,4.30
2012,03,30,07,18,4.30
2012,03,30,07,19,4.30
2012,03,30,07,20,4.30
2012,03,30,07,21,4.30
2012,03,30,07,22,4.30
2012,03,30,07,23,4.30
2012,03,30,07,24,4.30
2012,03,30,07,25,4.30
2012,03,30,07,26,4.30
2012,03,30,07,27,4.30
2012,03,30,07,28,4.30
2012,03,30,07,29,4.30
2012,03,30,07,30,4.30
2012,03,30,07,31,4.30
2012,03,30,07,32,4.30
2012,03,30,07,33,4.30
2012,03,30,07,34,4.30
2012,03,30,07,35,4.30
2012,03,30,07,36,4.30
2012,03,30,07,37,4.30
2012,03,30,07,38,4.30
2012,03,30,07,39,4.30
2012,03,30,07,40,4.30
2012,03,30,07,41,4.30
2012,03,30,07,42,4.30
2012,03,30,07,43,4.30
2012,03,30,07,44,4.30
2012,03,30,07,45,4.30
2012,03,30,07,46,4.30
2012,03,30,07,47,4.30
2012,03,30,07,48,4.30
2012,03,30,07,49,4.30
2012,03,30,07,50,4.30
2012,03,30,07,51,4.30
2012,03,30,07,52,4.30
2012,03,30,07,53,4.30
2012,03,30,07,54,4.30
2012,03,30,07,55,4.30
2012,03,30,07,56,4.30
2012,03,30,07,57,4.40
2012,03,30,07,58,4.40
2012,03,30,07,59,4.40
2012,03,30,08,00,4.40
2012,03,30,08,01,4.40
2012,03,30,08,02,4.40
2012,03,30,08,03,4.40
2012,03,30,08,04,4.40
2012,03,30,08,05,4.40
2012,03,30,08,06,4.40
2012,03,30,08,07,4.40
2012,03,30,08,08,4.40
2012,03,30,08,09,4.40
2012,03,30,08,10,4.40
2012,03,30,08,11,4.40
2012,03,30,08,12,4.40
2012,03,30,08,13,4.40
2012,03,30,08,14,4.40
2012,03,30,08,15,4.50
2012,03,30,08,16,4.50
2012,03,30,08,17,4.50
2012,03,30,08,18,4.50
2012,03,30,08,19,4.50
2012,03,30,08,20,4.50
2012,03,30,08,21,4.50
2012,03,30,08,22,4.50
2012,03,30,08,23,4.50
2012,03,30,08,24,4.50
2012,03,30,08,25,4.50
2012,03,30,08,26,4.50
2012,03,30,08,27,4.50
2012,03,30,08,28,4.50
2012,03,30,08,29,4.50
2012,03,30,08,30,4.50
2012,03,30,08,31,4.50
2012,03,30,08,32,4.60
2012,03,30,08,33,4.60
2012,03,30,08,34,4.70
2012,03,30,08,35,4.70
2012,03,30,08,36,4.80
2012,03,30,08,37,4.90
2012,03,30,08,38,4.90
2012,03,30,08,39,5.00
2012,03,30,08,40,5.10
2012,03,30,08,41,5.10
2012,03,30,08,42,5.20
2012,03,30,08,43,5.20
2012,03,30,08,44,5.30
2012,03,30,08,45,5.30
2012,03,30,08,46,5.30
2012,03,30,08,47,5.40
2012,03,30,08,48,5.50
2012,03,30,08,49,5.50
2012,03,30,08,50,5.60
2012,03,30,08,51,5.60
2012,03,30,08,52,5.70
2012,03,30,08,53,5.80
2012,03,30,08,54,5.90
2012,03,30,08,55,5.90
2012,03,30,08,56,6.00
2012,03,30,08,57,6.10
2012,03,30,08,58,6.10
2012,03,30,08,59,6.20
2012,03,30,09,00,6.20
2012,03,30,09,01,6.20
2012,03,30,09,02,6.20
2012,03,30,09,03,6.30
2012,03,30,09,04,6.30
2012,03,30,09,05,6.30
2012,03,30,09,06,6.30
2012,03,30,09,07,6.30
2012,03,30,09,08,6.40
2012,03,30,09,09,6.40
2012,03,30,09,10,6.50
2012,03,30,09,11,6.60
2012,03,30,09,12,6.70
2012,03,30,09,13,6.70
2012,03,30,09,14,6.80
2012,03,30,09,15,6.80
2012,03,30,09,16,6.80
2012,03,30,09,17,6.90
2012,03,30,09,18,6.90
2012,03,30,09,19,7.00
2012,03,30,09,20,7.00
2012,03,30,09,21,7.10
2012,03,30,09,22,7.10
2012,03,30,09,23,7.00
2012,03,30,09,24,7.00
2012,03,30,09,25,7.00
2012,03,30,09,26,7.10
2012,03,30,09,27,7.10
2012,03,30,09,28,7.10
2012,03,30,09,29,7.10
2012,03,30,09,30,7.20
2012,03,30,09,31,7.30
2012,03,30,09,32,7.40
2012,03,30,09,33,7.60
2012,03,30,09,34,7.70
2012,03,30,09,35,7.70
2012,03,30,09,36,7.80
2012,03,30,09,37,7.70
2012,03,30,09,38,7.70
2012,03,30,09,39,7.80
2012,03,30,09,40,7.80
2012,03,30,09,41,7.80
2012,03,30,09,42,7.80
2012,03,30,09,43,7.70
2012,03,30,09,44,7.60
2012,03,30,09,45,7.60
2012,03,30,09,46,7.60
2012,03,30,09,47,7.50
2012,03,30,09,48,7.40
2012,03,30,09,49,7.30
2012,03,30,09,50,7.20
2012,03,30,09,51,7.20
2012,03,30,09,52,7.20
2012,03,30,09,53,7.30
2012,03,30,09,54,7.20
2012,03,30,09,55,7.20
2012,03,30,09,56,7.30
2012,03,30,09,57,7.40
2012,03,30,09,58,7.50
2012,03,30,09,59,7.60
2012,03,30,10,00,7.70
2012,03,30,10,01,7.70
2012,03,30,10,02,7.80
2012,03,30,10,03,7.80
2012,03,30,10,04,7.80
2012,03,30,10,05,7.90
2012,03,30,10,06,7.90
2012,03,30,10,07,7.80
2012,03,30,10,08,7.90
2012,03,30,10,09,7.90
2012,03,30,10,10,7.90
2012,03,30,10,11,7.80
2012,03,30,10,12,7.80
2012,03,30,10,13,7.70
2012,03,30,10,14,7.70
2012,03,30,10,15,7.70
2012,03,30,10,16,7.80
2012,03,30,10,17,7.90
2012,03,30,10,18,7.90
2012,03,30,10,19,8.00
2012,03,30,10,20,8.00
2012,03,30,10,21,8.10
2012,03,30,10,22,8.10
2012,03,30,10,23,8.10
2012,03,30,10,24,8.10
2012,03,30,10,25,8.20
2012,03,30,10,26,8.10
2012,03,30,10,27,8.10
2012,03,30,10,28,8.10
2012,03,30,10,29,8.10
2012,03,30,10,30,8.20
2012,03,30,10,31,8.30
2012,03,30,10,32,8.40
2012,03,30,10,33,8.50
2012,03,30,10,34,8.50
2012,03,30,10,35,8.50
2012,03,30,10,36,8.50
2012,03,30,10,37,8.70
2012,03,30,10,38,8.80
2012,03,30,10,39,9.00
2012,03,30,10,40,9.10
2012,03,30,10,41,9.30
2012,03,30,10,42,9.40
2012,03,30,10,43,9.40
2012,03,30,10,44,9.40
2012,03,30,10,45,9.30
2012,03,30,10,46,9.20
2012,03,30,10,47,9.20
2012,03,30,10,48,9.20
2012,03,30,10,49,9.30
2012,03,30,10,50,9.40
2012,03,30,10,51,9.50
2012,03,30,10,52,9.50
2012,03,30,10,53,9.60
2012,03,30,10,54,9.60
2012,03,30,10,55,9.60
2012,03,30,10,56,9.60
2012,03,30,10,57,9.60
2012,03,30,10,58,9.60
2012,03,30,10,59,9.60
2012,03,30,11,00,9.60
2012,03,30,11,01,9.70
2012,03,30,11,02,9.70
2012,03,30,11,03,9.80
2012,03,30,11,04,9.90
2012,03,30,11,05,9.90
2012,03,30,11,06,10.00
2012,03,30,11,07,10.10
2012,03,30,11,08,10.20
2012,03,30,11,09,10.20
2012,03,30,11,10,10.30
2012,03,30,11,11,10.30
2012,03,30,11,12,10.40
2012,03,30,11,13,10.50
2012,03,30,11,14,10.60
2012,03,30,11,15,10.60
2012,03,30,11,16,10.60
2012,03,30,11,17,10.60
2012,03,30,11,18,10.60
2012,03,30,11,19,10.70
2012,03,30,11,20,10.80
2012,03,30,11,21,10.80
2012,03,30,11,22,10.90
2012,03,30,11,23,10.90
2012,03,30,11,24,10.90
2012,03,30,11,25,10.90
2012,03,30,11,26,10.90
2012,03,30,11,27,10.90
2012,03,30,11,28,10.90
2012,03,30,11,29,10.90
2012,03,30,11,30,10.90
2012,03,30,11,31,11.00
2012,03,30,11,32,11.10
2012,03,30,11,33,11.10
2012,03,30,11,34,11.00
2012,03,30,11,35,10.90
2012,03,30,11,36,10.90
2012,03,30,11,37,10.80
2012,03,30,11,38,10.80
2012,03,30,11,39,10.80
2012,03,30,11,40,10.70
2012,03,30,11,41,10.70
2012,03,30,11,42,10.80
2012,03,30,11,43,10.70
2012,03,30,11,44,10.70
2012,03,30,11,45,10.70
2012,03,30,11,46,10.60
2012,03,30,11,47,10.60
2012,03,30,11,48,10.60
2012,03,30,11,49,10.60
2012,03,30,11,50,10.60
2012,03,30,11,51,10.60
2012,03,30,11,52,10.60
2012,03,30,11,53,10.40
2012,03,30,11,54,10.40
2012,03,30,11,55,10.30
2012,03,30,11,56,10.30
2012,03,30,11,57,10.20
2012,03,30,11,58,10.20
2012,03,30,11,59,10.20
2012,03,30,12,00,10.20
2012,03,30,12,01,10.20
2012,03,30,12,02,10.20
2012,03,30,12,03,10.20
2012,03,30,12,04,10.10
2012,03,30,12,05,10.10
2012,03,30,12,06,10.10
2012,03,30,12,07,10.00
2012,03,30,12,08,9.90
2012,03,30,12,09,9.90
2012,03,30,12,10,9.90
2012,03,30,12,11,9.90
2012,03,30,12,12,9.90
2012,03,30,12,13,9.90
2012,03,30,12,14,9.90
2012,03,30,12,15,9.90
2012,03,30,12,16,9.90
2012,03,30,12,17,9.90
2012,03,30,12,18,9.90
2012,03,30,12,19,9.90
2012,03,30,12,20,9.90
2012,03,30,12,21,9.80
2012,03,30,12,22,9.70
2012,03,30,12,23,9.70
2012,03,30,12,24,9.50
2012,03,30,12,25,9.40
2012,03,30,12,26,9.30
2012,03,30,12,27,9.00
2012,03,30,12,28,8.90
2012,03,30,12,29,8.80
2012,03,30,12,30,8.70
2012,03,30,12,31,8.70
2012,03,30,12,32,8.60
2012,03,30,12,33,8.50
2012,03,30,12,34,8.40
2012,03,30,12,35,8.30
2012,03,30,12,36,8.20
2012,03,30,12,37,8.20
2012,03,30,12,38,8.10
2012,03,30,12,39,8.00
2012,03,30,12,40,7.90
2012,03,30,12,41,7.90
2012,03,30,12,42,7.90
2012,03,30,12,43,7.80
2012,03,30,12,44,7.80
2012,03,30,12,45,7.70
2012,03,30,12,46,7.70
2012,03,30,12,47,7.70
2012,03,30,12,48,7.70
2012,03,30,12,49,7.60
2012,03,30,12,50,7.70
2012,03,30,12,51,7.70
2012,03,30,12,52,7.60
2012,03,30,12,53,7.60
2012,03,30,12,54,7.60
2012,03,30,12,55,7.60
2012,03,30,12,56,7.60
2012,03,30,12,57,7.60
2012,03,30,12,58,7.60
2012,03,30,12,59,7.60
2012,03,30,13,00,7.60
2012,03,30,13,01,7.60
2012,03,30,13,02,7.60
2012,03,30,13,03,7.70
2012,03,30,13,04,7.60
2012,03,30,13,05,7.60
2012,03,30,13,06,7.60
2012,03,30,13,07,7.60
2012,03,30,13,08,7.60
2012,03,30,13,09,7.70
2012,03,30,13,10,7.70
2012,03,30,13,11,7.70
2012,03,30,13,12,7.80
2012,03,30,13,13,7.80
2012,03,30,13,14,7.80
2012,03,30,13,15,7.90
2012,03,30,13,16,7.90
2012,03,30,13,17,7.90
2012,03,30,13,18,7.90
2012,03,30,13,19,7.80
2012,03,30,13,20,7.80
2012,03,30,13,21,7.80
2012,03,30,13,22,7.80
2012,03,30,13,23,7.70
2012,03,30,13,24,7.70
2012,03,30,13,25,7.80
2012,03,30,13,26,7.70
2012,03,30,13,27,7.70
2012,03,30,13,28,7.70
2012,03,30,13,29,7.70
2012,03,30,13,30,7.70
2012,03,30,13,31,7.70
2012,03,30,13,32,7.70
2012,03,30,13,33,7.60
2012,03,30,13,34,7.60
2012,03,30,13,35,7.50
2012,03,30,13,36,7.50
2012,03,30,13,37,7.50
2012,03,30,13,38,7.50
2012,03,30,13,39,7.50
2012,03,30,13,40,7.40
2012,03,30,13,41,7.40
2012,03,30,13,42,7.40
2012,03,30,13,43,7.40
2012,03,30,13,44,7.40
2012,03,30,13,45,7.40
2012,03,30,13,46,7.30
2012,03,30,13,47,7.30
2012,03,30,13,48,7.20
2012,03,30,13,49,7.20
2012,03,30,13,50,7.10
2012,03,30,13,51,7.00
2012,03,30,13,52,6.90
2012,03,30,13,53,6.80
2012,03,30,13,54,6.70
2012,03,30,13,55,6.60
2012,03,30,13,56,6.50
2012,03,30,13,57,6.40
2012,03,30,13,58,6.40
2012,03,30,13,59,6.40
2012,03,30,14,00,6.40
2012,03,30,14,01,6.40
2012,03,30,14,02,6.30
2012,03,30,14,03,6.30
2012,03,30,14,04,6.30
2012,03,30,14,05,6.20
2012,03,30,14,06,6.20
2012,03,30,14,07,6.20
2012,03,30,14,08,6.20
2012,03,30,14,09,6.10
2012,03,30,14,10,6.10
2012,03,30,14,11,6.10
2012,03,30,14,12,6.10
2012,03,30,14,13,6.00
2012,03,30,14,14,6.00
2012,03,30,14,15,6.00
2012,03,30,14,16,5.90
2012,03,30,14,17,5.80
2012,03,30,14,18,5.70
2012,03,30,14,19,5.70
2012,03,30,14,20,5.70
2012,03,30,14,21,5.60
2012,03,30,14,22,5.60
2012,03,30,14,23,5.50
2012,03,30,14,24,5.40
2012,03,30,14,25,5.40
2012,03,30,14,26,5.40
2012,03,30,14,27,5.30
2012,03,30,14,28,5.30
2012,03,30,14,29,5.30
2012,03,30,14,30,5.30
2012,03,30,14,31,5.30
2012,03,30,14,32,5.30
2012,03,30,14,33,5.30
2012,03,30,14,34,5.30
2012,03,30,14,35,5.30
2012,03,30,14,36,5.30
2012,03,30,14,37,5.30
2012,03,30,14,38,5.30
2012,03,30,14,39,5.30
2012,03,30,14,40,5.30
2012,03,30,14,41,5.30
2012,03,30,14,42,5.30
2012,03,30,14,43,5.30
2012,03,30,14,44,5.30
2012,03,30,14,45,5.30
2012,03,30,14,46,5.30
2012,03,30,14,47,5.30
2012,03,30,14,48,5.30
2012,03,30,14,49,5.30
2012,03,30,14,50,5.30
2012,03,30,14,51,5.30
2012,03,30,14,52,5.30
2012,03,30,14,53,5.30
2012,03,30,14,54,5.30
2012,03,30,14,55,5.30
2012,03,30,14,56,5.30
2012,03,30,14,57,5.20
2012,03,30,14,58,5.20
2012,03,30,14,59,5.20
2012,03,30,15,00,5.20
2012,03,30,15,01,5.20
2012,03,30,15,02,5.20
2012,03,30,15,03,5.20
2012,03,30,15,04,5.20
2012,03,30,15,05,5.10
2012,03,30,15,06,5.10
2012,03,30,15,07,5.10
2012,03,30,15,08,5.10
2012,03,30,15,09,5.10
2012,03,30,15,10,5.10
2012,03,30,15,11,5.10
2012,03,30,15,12,5.10
2012,03,30,15,13,5.10
2012,03,30,15,14,5.10
2012,03,30,15,15,5.00
2012,03,30,15,16,4.90
2012,03,30,15,17,4.90
2012,03,30,15,18,4.90
2012,03,30,15,19,4.90
2012,03,30,15,20,4.90
2012,03,30,15,21,4.90
2012,03,30,15,22,4.90
2012,03,30,15,23,4.90
2012,03,30,15,24,4.90
2012,03,30,15,25,4.90
2012,03,30,15,26,4.90
2012,03,30,15,27,4.90
2012,03,30,15,28,4.90
2012,03,30,15,29,4.90
2012,03,30,15,30,5.00
2012,03,30,15,31,5.10
2012,03,30,15,32,5.10
2012,03,30,15,33,5.10
2012,03,30,15,34,5.10
2012,03,30,15,35,5.10
2012,03,30,15,36,5.10
2012,03,30,15,37,5.10
2012,03,30,15,38,5.10
2012,03,30,15,39,5.20
2012,03,30,15,40,5.20
2012,03,30,15,41,5.20
2012,03,30,15,42,5.30
2012,03,30,15,43,5.30
2012,03,30,15,44,5.30
2012,03,30,15,45,5.20
2012,03,30,15,46,5.30
2012,03,30,15,47,5.30
2012,03,30,15,48,5.20
2012,03,30,15,49,5.20
2012,03,30,15,50,5.20
2012,03,30,15,51,5.20
2012,03,30,15,52,5.30
2012,03,30,15,53,5.30
2012,03,30,15,54,5.30
2012,03,30,15,55,5.30
2012,03,30,15,56,5.30
2012,03,30,15,57,5.30
2012,03,30,15,58,5.30
2012,03,30,15,59,5.40
2012,03,30,16,00,5.40
2012,03,30,16,01,5.40
2012,03,30,16,02,5.50
2012,03,30,16,03,5.50
2012,03,30,16,04,5.50
2012,03,30,16,05,5.50
2012,03,30,16,06,5.50
2012,03,30,16,07,5.50
2012,03,30,16,08,5.50
2012,03,30,16,09,5.50
2012,03,30,16,10,5.60
2012,03,30,16,11,5.70
2012,03,30,16,12,5.70
2012,03,30,16,13,5.80
2012,03,30,16,14,5.90
2012,03,30,16,15,6.00
2012,03,30,16,16,6.00
2012,03,30,16,17,6.10
2012,03,30,16,18,6.20
2012,03,30,16,19,6.30
2012,03,30,16,20,6.40
2012,03,30,16,21,6.60
2012,03,30,16,22,6.60
2012,03,30,16,23,6.70
2012,03,30,16,24,6.70
2012,03,30,16,25,6.80
2012,03,30,16,26,6.90
2012,03,30,16,27,7.00
2012,03,30,16,28,7.00
2012,03,30,16,29,7.00
2012,03,30,16,30,7.10
2012,03,30,16,31,7.10
2012,03,30,16,32,7.20
2012,03,30,16,33,7.20
2012,03,30,16,34,7.40
2012,03,30,16,35,7.50
2012,03,30,16,36,7.60
2012,03,30,16,37,7.50
2012,03,30,16,38,7.40
2012,03,30,16,39,7.40
2012,03,30,16,40,7.50
2012,03,30,16,41,7.60
2012,03,30,16,42,7.60
2012,03,30,16,43,7.60
2012,03,30,16,44,7.60
2012,03,30,16,45,7.70
2012,03,30,16,46,7.80
2012,03,30,16,47,7.80
2012,03,30,16,48,7.80
2012,03,30,16,49,7.90
2012,03,30,16,50,7.90
2012,03,30,16,51,8.00
2012,03,30,16,52,8.10
2012,03,30,16,53,8.20
2012,03,30,16,54,8.20
2012,03,30,16,55,8.20
2012,03,30,16,56,8.20
2012,03,30,16,57,8.30
2012,03,30,16,58,8.30
2012,03,30,16,59,8.30
2012,03,30,17,00,8.30
2012,03,30,17,01,8.40
2012,03,30,17,02,8.40
2012,03,30,17,03,8.40
2012,03,30,17,04,8.30
2012,03,30,17,05,8.20
2012,03,30,17,06,8.00
2012,03,30,17,07,7.90
2012,03,30,17,08,7.90
2012,03,30,17,09,7.90
2012,03,30,17,10,7.80
2012,03,30,17,11,7.70
2012,03,30,17,12,7.60
2012,03,30,17,13,7.50
2012,03,30,17,14,7.40
2012,03,30,17,15,7.40
2012,03,30,17,16,7.30
2012,03,30,17,17,7.30
2012,03,30,17,18,7.30
2012,03,30,17,19,7.30
2012,03,30,17,20,7.30
2012,03,30,17,21,7.20
2012,03,30,17,22,7.30
2012,03,30,17,23,7.30
2012,03,30,17,24,7.40
2012,03,30,17,25,7.40
2012,03,30,17,26,7.40
2012,03,30,17,27,7.40
2012,03,30,17,28,7.50
2012,03,30,17,29,7.50
2012,03,30,17,30,7.50
2012,03,30,17,31,7.60
2012,03,30,17,32,7.60
2012,03,30,17,33,7.70
2012,03,30,17,34,7.60
2012,03,30,17,35,7.60
2012,03,30,17,36,7.60
2012,03,30,17,37,7.60
2012,03,30,17,38,7.60
2012,03,30,17,39,7.50
2012,03,30,17,40,7.50
2012,03,30,17,41,7.50
2012,03,30,17,42,7.50
2012,03,30,17,43,7.50
2012,03,30,17,44,7.50
2012,03,30,17,45,7.40
2012,03,30,17,46,7.40
2012,03,30,17,47,7.30
2012,03,30,17,48,7.30
2012,03,30,17,49,7.30
2012,03,30,17,50,7.30
2012,03,30,17,51,7.20
2012,03,30,17,52,7.20
2012,03,30,17,53,7.10
2012,03,30,17,54,7.10
2012,03,30,17,55,7.10
2012,03,30,17,56,7.10
2012,03,30,17,57,7.10
2012,03,30,17,58,7.10
2012,03,30,17,59,7.10
2012,03,30,18,00,7.10
2012,03,30,18,01,7.10
2012,03,30,18,02,7.10
2012,03,30,18,03,7.10